,,,PA_Meas_PMT16A,,PR_Meas_QMR101_102,,RH_Meas_QMH101,,SR_Meas_QMS101,,TA_Meas_QMH101,,GenWind,,GenWind,
date,time,status,PA,status,PR,status,RH,status,SR,status,TA,status,DirAvg,status,SpdAvg,
2011-07-16, 00:00:04,VALID,1003.93,VALID,0,INVALID,163.609,VALID,0.100563,VALID,25.9018,VALID,350,VALID,0,
2011-07-16, 00:01:04,VALID,1003.92,VALID,0,INVALID,163.594,VALID,0,VALID,25.9018,VALID,356,VALID,0,
2011-07-16, 00:02:04,VALID,1003.95,VALID,0,INVALID,163.578,VALID,0,VALID,25.9018,VALID,358,VALID,0,
2011-07-16, 00:03:04,VALID,1003.95,VALID,0,INVALID,163.632,VALID,0,VALID,25.9018,VALID,354,VALID,0,
2011-07-16, 00:04:04,VALID,1003.96,VALID,0,INVALID,163.601,VALID,0,VALID,25.8629,VALID,4,VALID,0,
2011-07-16, 00:05:04,VALID,1003.91,VALID,0,INVALID,163.578,VALID,0,VALID,25.9038,VALID,356,VALID,0,
2011-07-16, 00:06:04,VALID,1003.88,VALID,0,INVALID,163.617,VALID,0.100563,VALID,25.8629,VALID,9,VALID,0,
2011-07-16, 00:07:04,VALID,1003.81,VALID,0,INVALID,163.617,VALID,0,VALID,25.8629,VALID,340,VALID,0,
2011-07-16, 00:08:04,VALID,1003.8,VALID,0,INVALID,163.609,VALID,0.100563,VALID,25.9018,VALID,19,VALID,0,
2011-07-16, 00:09:04,VALID,1003.75,VALID,0,INVALID,163.624,VALID,0,VALID,25.8823,VALID,343,VALID,0,
2011-07-16, 00:10:04,VALID,1003.74,VALID,0,INVALID,163.624,VALID,0,VALID,25.8823,VALID,7,VALID,0,
2011-07-16, 00:11:04,VALID,1003.75,VALID,0,INVALID,163.617,VALID,0.100563,VALID,25.8823,VALID,355,VALID,0,
2011-07-16, 00:12:04,VALID,1003.73,VALID,0,INVALID,163.617,VALID,0,VALID,25.8629,VALID,354,VALID,0,
2011-07-16, 00:13:04,VALID,1003.76,VALID,0,INVALID,163.609,VALID,0,VALID,25.8434,VALID,354,VALID,0,
2011-07-16, 00:14:04,VALID,1003.75,VALID,0,INVALID,163.609,VALID,0,VALID,25.8239,VALID,352,VALID,0,
2011-07-16, 00:15:04,VALID,1003.71,VALID,0,INVALID,163.624,VALID,0,VALID,25.785,VALID,353,VALID,0,
2011-07-16, 00:16:04,VALID,1003.69,VALID,0,INVALID,163.639,VALID,0.100563,VALID,25.785,VALID,32,VALID,0,
2011-07-16, 00:17:04,VALID,1003.72,VALID,0,INVALID,163.624,VALID,0,VALID,25.7635,VALID,9,VALID,0,
2011-07-16, 00:18:04,VALID,1003.71,VALID,0,INVALID,163.639,VALID,0,VALID,25.785,VALID,37,VALID,0,
2011-07-16, 00:19:04,VALID,1003.72,VALID,0,INVALID,163.609,VALID,0,VALID,25.7655,VALID,31,VALID,0,
2011-07-16, 00:20:04,VALID,1003.72,VALID,0,INVALID,163.609,VALID,0,VALID,25.7635,VALID,31,VALID,0,
2011-07-16, 00:21:04,VALID,1003.72,VALID,0,INVALID,163.639,VALID,0.100563,VALID,25.7635,VALID,31,VALID,0,
2011-07-16, 00:22:04,VALID,1003.71,VALID,0,INVALID,163.639,VALID,0.100563,VALID,25.785,VALID,4,VALID,0,
2011-07-16, 00:23:04,VALID,1003.71,VALID,0,INVALID,163.624,VALID,0.100563,VALID,25.8044,VALID,344,VALID,0,
2011-07-16, 00:24:04,VALID,1003.73,VALID,0,INVALID,163.594,VALID,0,VALID,25.8044,VALID,344,VALID,0,
2011-07-16, 00:25:04,VALID,1003.78,VALID,0,INVALID,163.617,VALID,0,VALID,25.8025,VALID,331,VALID,0,
2011-07-16, 00:26:04,VALID,1003.79,VALID,0,INVALID,163.624,VALID,0,VALID,25.8044,VALID,331,VALID,0,
2011-07-16, 00:27:04,VALID,1003.82,VALID,0,INVALID,163.578,VALID,0.100563,VALID,25.8025,VALID,357,VALID,0,
2011-07-16, 00:28:04,VALID,1003.87,VALID,0,INVALID,163.617,VALID,0.100563,VALID,25.8629,VALID,357,VALID,0,
2011-07-16, 00:29:04,VALID,1003.89,VALID,0,INVALID,163.617,VALID,0.100563,VALID,25.8629,VALID,357,VALID,0,
2011-07-16, 00:30:04,VALID,1003.92,VALID,0,INVALID,163.647,VALID,0.100563,VALID,25.8414,VALID,15,VALID,0,
2011-07-16, 00:31:04,VALID,1003.94,VALID,0,INVALID,163.624,VALID,0.100563,VALID,25.8239,VALID,16,VALID,0,
2011-07-16, 00:32:04,VALID,1003.92,VALID,0,INVALID,163.617,VALID,0.100563,VALID,25.8239,VALID,16,VALID,0,
2011-07-16, 00:33:04,VALID,1003.95,VALID,0,INVALID,163.655,VALID,0.100563,VALID,25.8044,VALID,16,VALID,0,
2011-07-16, 00:34:04,VALID,1003.96,VALID,0,INVALID,163.609,VALID,0.100563,VALID,25.744,VALID,16,VALID,0,
2011-07-16, 00:35:04,VALID,1003.99,VALID,0,INVALID,163.609,VALID,0.100563,VALID,25.7655,VALID,26,VALID,0,
2011-07-16, 00:36:04,VALID,1003.99,VALID,0,INVALID,163.639,VALID,0,VALID,25.746,VALID,19,VALID,0,
2011-07-16, 00:37:04,VALID,1004,VALID,0,INVALID,163.617,VALID,0.100563,VALID,25.8044,VALID,16,VALID,0,
2011-07-16, 00:38:04,VALID,1003.97,VALID,0,INVALID,163.639,VALID,0,VALID,25.8239,VALID,19,VALID,0,
2011-07-16, 00:39:04,VALID,1003.96,VALID,0,INVALID,163.601,VALID,0.100563,VALID,25.8025,VALID,25,VALID,0,
2011-07-16, 00:40:04,VALID,1003.96,VALID,0,INVALID,163.624,VALID,0.100563,VALID,25.8025,VALID,26,VALID,0,
2011-07-16, 00:41:04,VALID,1003.94,VALID,0,INVALID,163.632,VALID,0,VALID,25.8239,VALID,37,VALID,0,
2011-07-16, 00:42:04,VALID,1003.91,VALID,0,INVALID,163.617,VALID,0.100563,VALID,25.8239,VALID,8,VALID,0,
2011-07-16, 00:43:04,VALID,1003.92,VALID,0,INVALID,163.594,VALID,0.100563,VALID,25.8434,VALID,96,VALID,0,
2011-07-16, 00:44:04,VALID,1003.88,VALID,0,INVALID,163.617,VALID,0.100563,VALID,25.8219,VALID,127,VALID,0,
2011-07-16, 00:45:04,VALID,1003.89,VALID,0,INVALID,163.601,VALID,0.100563,VALID,25.8044,VALID,128,VALID,0,
2011-07-16, 00:46:04,VALID,1003.88,VALID,0,INVALID,163.632,VALID,0.100563,VALID,25.8239,VALID,151,VALID,0,
2011-07-16, 00:47:04,VALID,1003.83,VALID,0,INVALID,163.609,VALID,0,VALID,25.8025,VALID,144,VALID,0,
2011-07-16, 00:48:04,VALID,1003.83,VALID,0,INVALID,163.632,VALID,0,VALID,25.8453,VALID,142,VALID,0,
2011-07-16, 00:49:04,VALID,1003.78,VALID,0,INVALID,163.647,VALID,0,VALID,25.8414,VALID,142,VALID,0,
2011-07-16, 00:50:04,VALID,1003.77,VALID,0,INVALID,163.632,VALID,0.100563,VALID,25.8434,VALID,138,VALID,0,
2011-07-16, 00:51:04,VALID,1003.75,VALID,0,INVALID,163.617,VALID,0.100563,VALID,25.8239,VALID,110,VALID,0,
2011-07-16, 00:52:04,VALID,1003.75,VALID,0,INVALID,163.624,VALID,0.100563,VALID,25.785,VALID,114,VALID,0,
2011-07-16, 00:53:04,VALID,1003.77,VALID,0,INVALID,163.632,VALID,0,VALID,25.785,VALID,115,VALID,0,
2011-07-16, 00:54:04,VALID,1003.79,VALID,0,INVALID,163.624,VALID,0.100563,VALID,25.7071,VALID,121,VALID,0,
2011-07-16, 00:55:04,VALID,1003.82,VALID,0,INVALID,163.624,VALID,0.100563,VALID,25.6876,VALID,120,VALID,0,
2011-07-16, 00:56:04,VALID,1003.85,VALID,0,INVALID,163.624,VALID,0.100563,VALID,25.6292,VALID,116,VALID,0,
2011-07-16, 00:57:04,VALID,1003.87,VALID,0,INVALID,163.639,VALID,0.100563,VALID,25.6097,VALID,122,VALID,0,
2011-07-16, 00:58:04,VALID,1003.88,VALID,0,INVALID,163.655,VALID,0.100563,VALID,25.5513,VALID,123,VALID,0,
2011-07-16, 00:59:04,VALID,1003.87,VALID,0,INVALID,163.632,VALID,0.100563,VALID,25.5318,VALID,120,VALID,0,
2011-07-16, 01:00:04,VALID,1003.86,VALID,0,INVALID,163.639,VALID,0,VALID,25.4948,VALID,98,VALID,0,
2011-07-16, 01:01:04,VALID,1003.85,VALID,0,INVALID,163.639,VALID,0,VALID,25.4558,VALID,115,VALID,0,
2011-07-16, 01:02:04,VALID,1003.86,VALID,0,INVALID,163.617,VALID,0,VALID,25.376,VALID,132,VALID,0,
2011-07-16, 01:03:04,VALID,1003.88,VALID,0,INVALID,163.632,VALID,0,VALID,25.3214,VALID,148,VALID,0,
2011-07-16, 01:04:04,VALID,1003.85,VALID,0,INVALID,163.647,VALID,0,VALID,25.2611,VALID,129,VALID,0,
2011-07-16, 01:05:04,VALID,1003.85,VALID,0.5,INVALID,163.662,VALID,0,VALID,25.2416,VALID,133,VALID,0,
2011-07-16, 01:06:04,VALID,1003.83,VALID,0,INVALID,163.655,VALID,0,VALID,25.2416,VALID,149,VALID,0,
2011-07-16, 01:07:04,VALID,1003.81,VALID,0,INVALID,163.639,VALID,0,VALID,25.2416,VALID,170,VALID,0,
2011-07-16, 01:08:04,VALID,1003.81,VALID,0,INVALID,163.632,VALID,0,VALID,25.2221,VALID,169,VALID,0,
2011-07-16, 01:09:04,VALID,1003.82,VALID,0,INVALID,163.647,VALID,0,VALID,25.2221,VALID,177,VALID,0,
2011-07-16, 01:10:04,VALID,1003.83,VALID,0,INVALID,163.678,VALID,0,VALID,25.2221,VALID,173,VALID,0,
2011-07-16, 01:11:04,VALID,1003.87,VALID,0,INVALID,163.655,VALID,0,VALID,25.2027,VALID,169,VALID,0,
2011-07-16, 01:12:04,VALID,1003.89,VALID,0,INVALID,163.662,VALID,0,VALID,25.1637,VALID,139,VALID,0,
2011-07-16, 01:13:04,VALID,1003.89,VALID,0,INVALID,163.662,VALID,0,VALID,25.1442,VALID,110,VALID,0,
2011-07-16, 01:14:04,VALID,1003.91,VALID,0,INVALID,163.67,VALID,0,VALID,25.1053,VALID,83,VALID,0,
2011-07-16, 01:15:04,VALID,1003.9,VALID,0,INVALID,163.693,VALID,0,VALID,25.0663,VALID,73,VALID,0,
2011-07-16, 01:16:04,VALID,1003.9,VALID,0,INVALID,163.685,VALID,0,VALID,25.0488,VALID,69,VALID,0,
2011-07-16, 01:17:04,VALID,1003.85,VALID,0,INVALID,163.678,VALID,0,VALID,25.0079,VALID,64,VALID,0,
2011-07-16, 01:18:04,VALID,1003.83,VALID,0,INVALID,163.708,VALID,0,VALID,24.9282,VALID,64,VALID,0,
2011-07-16, 01:19:04,VALID,1003.78,VALID,0,INVALID,163.708,VALID,0,VALID,24.9495,VALID,64,VALID,0,
2011-07-16, 01:20:04,VALID,1003.8,VALID,0,INVALID,163.655,VALID,0,VALID,24.9087,VALID,64,VALID,0,
2011-07-16, 01:21:04,VALID,1003.79,VALID,0,INVALID,163.678,VALID,0,VALID,24.9106,VALID,73,VALID,0,
2011-07-16, 01:22:04,VALID,1003.8,VALID,0,INVALID,163.662,VALID,0,VALID,24.8911,VALID,107,VALID,0,
2011-07-16, 01:23:04,VALID,1003.79,VALID,0,INVALID,163.685,VALID,0,VALID,24.8308,VALID,111,VALID,0,
2011-07-16, 01:24:04,VALID,1003.78,VALID,0,INVALID,163.693,VALID,0,VALID,24.8308,VALID,125,VALID,0,
2011-07-16, 01:25:04,VALID,1003.78,VALID,0,INVALID,163.685,VALID,0,VALID,24.854,VALID,157,VALID,0,
2011-07-16, 01:26:04,VALID,1003.75,VALID,0,INVALID,163.716,VALID,0,VALID,24.7937,VALID,159,VALID,0,
2011-07-16, 01:27:04,VALID,1003.73,VALID,0,INVALID,163.662,VALID,0,VALID,24.8132,VALID,160,VALID,0,
2011-07-16, 01:28:04,VALID,1003.7,VALID,0,INVALID,163.685,VALID,0,VALID,24.8327,VALID,160,VALID,0,
2011-07-16, 01:29:04,VALID,1003.67,VALID,0,INVALID,163.708,VALID,0,VALID,24.8308,VALID,160,VALID,0,
2011-07-16, 01:30:04,VALID,1003.64,VALID,0,INVALID,163.701,VALID,0,VALID,24.7919,VALID,160,VALID,0,
2011-07-16, 01:31:04,VALID,1003.62,VALID,0,INVALID,163.708,VALID,0,VALID,24.7743,VALID,161,VALID,0,
2011-07-16, 01:32:04,VALID,1003.61,VALID,0,INVALID,163.67,VALID,0,VALID,24.7548,VALID,170,VALID,0,
2011-07-16, 01:33:04,VALID,1003.61,VALID,0,INVALID,163.678,VALID,0,VALID,24.7743,VALID,170,VALID,0,
2011-07-16, 01:34:04,VALID,1003.62,VALID,0,INVALID,163.678,VALID,0,VALID,24.7529,VALID,170,VALID,0,
2011-07-16, 01:35:04,VALID,1003.6,VALID,0,INVALID,163.693,VALID,0,VALID,24.7743,VALID,162,VALID,0,
2011-07-16, 01:36:04,VALID,1003.58,VALID,0,INVALID,163.662,VALID,0,VALID,24.7724,VALID,124,VALID,0,
2011-07-16, 01:37:04,VALID,1003.57,VALID,0,INVALID,163.685,VALID,0,VALID,24.7743,VALID,124,VALID,0,
2011-07-16, 01:38:04,VALID,1003.53,VALID,0,INVALID,163.685,VALID,0,VALID,24.6964,VALID,73,VALID,0,
2011-07-16, 01:39:04,VALID,1003.52,VALID,0,INVALID,163.723,VALID,0,VALID,24.6361,VALID,73,VALID,0,
2011-07-16, 01:40:04,VALID,1003.5,VALID,0,INVALID,163.701,VALID,0,VALID,24.6185,VALID,73,VALID,0,
2011-07-16, 01:41:04,VALID,1003.5,VALID,0,INVALID,163.708,VALID,0,VALID,24.599,VALID,73,VALID,0,
2011-07-16, 01:42:04,VALID,1003.48,VALID,0,INVALID,163.716,VALID,0,VALID,24.5601,VALID,73,VALID,0,
2011-07-16, 01:43:04,VALID,1003.49,VALID,0,INVALID,163.708,VALID,0,VALID,24.5212,VALID,73,VALID,0,
2011-07-16, 01:44:04,VALID,1003.52,VALID,0,INVALID,163.708,VALID,0,VALID,24.5212,VALID,73,VALID,0,
2011-07-16, 01:45:04,VALID,1003.47,VALID,0,INVALID,163.739,VALID,0,VALID,24.4998,VALID,73,VALID,0,
2011-07-16, 01:46:04,VALID,1003.42,VALID,0,INVALID,163.708,VALID,0,VALID,24.5212,VALID,73,VALID,0,
2011-07-16, 01:47:04,VALID,1003.41,VALID,0,INVALID,163.723,VALID,0,VALID,24.5017,VALID,352,VALID,0,
2011-07-16, 01:48:04,VALID,1003.38,VALID,0,INVALID,163.731,VALID,0,VALID,24.5406,VALID,184,VALID,0,
2011-07-16, 01:49:04,VALID,1003.35,VALID,0,INVALID,163.708,VALID,0,VALID,24.4998,VALID,172,VALID,0,
2011-07-16, 01:50:04,VALID,1003.33,VALID,0,INVALID,163.708,VALID,0,VALID,24.4822,VALID,209,VALID,0,
2011-07-16, 01:51:04,VALID,1003.32,VALID,0,INVALID,163.693,VALID,0,VALID,24.5017,VALID,220,VALID,0,
2011-07-16, 01:52:04,VALID,1003.32,VALID,0,INVALID,163.723,VALID,0,VALID,24.5406,VALID,220,VALID,0,
2011-07-16, 01:53:04,VALID,1003.29,VALID,0,INVALID,163.662,VALID,0,VALID,24.5388,VALID,220,VALID,0,
2011-07-16, 01:54:04,VALID,1003.3,VALID,0,INVALID,163.693,VALID,0,VALID,24.5777,VALID,220,VALID,0,
2011-07-16, 01:55:04,VALID,1003.26,VALID,0,INVALID,163.678,VALID,0,VALID,24.6185,VALID,220,VALID,0,
2011-07-16, 01:56:04,VALID,1003.25,VALID,0,INVALID,163.716,VALID,0,VALID,24.6166,VALID,220,VALID,0,
2011-07-16, 01:57:04,VALID,1003.21,VALID,0,INVALID,163.693,VALID,0,VALID,24.6769,VALID,220,VALID,0,
2011-07-16, 01:58:04,VALID,1003.19,VALID,0,INVALID,163.701,VALID,0,VALID,24.6361,VALID,220,VALID,0,
2011-07-16, 01:59:04,VALID,1003.13,VALID,0,INVALID,163.731,VALID,0,VALID,24.6361,VALID,220,VALID,0,
2011-07-16, 02:00:04,VALID,1003.11,VALID,0,INVALID,163.678,VALID,0,VALID,24.6166,VALID,220,VALID,0,
2011-07-16, 02:01:04,VALID,1003.08,VALID,0,INVALID,163.716,VALID,0,VALID,24.5777,VALID,215,VALID,0,
2011-07-16, 02:02:04,VALID,1003,VALID,0,INVALID,163.701,VALID,0.100563,VALID,24.5193,VALID,198,VALID,0,
2011-07-16, 02:03:04,VALID,1002.96,VALID,0,INVALID,163.716,VALID,0,VALID,24.4998,VALID,198,VALID,0,
2011-07-16, 02:04:04,VALID,1002.88,VALID,0,INVALID,163.708,VALID,0,VALID,24.4998,VALID,198,VALID,0,
2011-07-16, 02:05:04,VALID,1002.81,VALID,0,INVALID,163.723,VALID,0,VALID,24.4998,VALID,198,VALID,0,
2011-07-16, 02:06:04,VALID,1002.76,VALID,0,INVALID,163.723,VALID,0,VALID,24.4998,VALID,198,VALID,0,
2011-07-16, 02:07:04,VALID,1002.7,VALID,0,INVALID,163.716,VALID,0,VALID,24.5017,VALID,198,VALID,0,
2011-07-16, 02:08:04,VALID,1002.65,VALID,0,INVALID,163.701,VALID,0,VALID,24.4609,VALID,198,VALID,0,
2011-07-16, 02:09:04,VALID,1002.64,VALID,0,INVALID,163.716,VALID,0,VALID,24.4414,VALID,198,VALID,0,
2011-07-16, 02:10:04,VALID,1002.61,VALID,0,INVALID,163.723,VALID,0,VALID,24.4414,VALID,198,VALID,0,
2011-07-16, 02:11:04,VALID,1002.57,VALID,0,INVALID,163.708,VALID,0,VALID,24.4414,VALID,198,VALID,0,
2011-07-16, 02:12:04,VALID,1002.56,VALID,0,INVALID,163.716,VALID,0,VALID,24.4628,VALID,198,VALID,0,
2011-07-16, 02:13:04,VALID,1002.54,VALID,0,INVALID,163.739,VALID,0.100563,VALID,24.4414,VALID,198,VALID,0,
2011-07-16, 02:14:04,VALID,1002.51,VALID,0,INVALID,163.716,VALID,0.100563,VALID,24.3812,VALID,198,VALID,0,
2011-07-16, 02:15:04,VALID,1002.5,VALID,0,INVALID,163.739,VALID,0.100563,VALID,24.3812,VALID,198,VALID,0,
2011-07-16, 02:16:04,VALID,1002.47,VALID,0,INVALID,163.746,VALID,0,VALID,24.383,VALID,199,VALID,0,
2011-07-16, 02:17:04,VALID,1002.43,VALID,0,INVALID,163.723,VALID,0.100563,VALID,24.3441,VALID,230,VALID,0,
2011-07-16, 02:18:04,VALID,1002.4,VALID,0,INVALID,163.723,VALID,0,VALID,24.3441,VALID,236,VALID,0,
2011-07-16, 02:19:04,VALID,1002.38,VALID,0,INVALID,163.739,VALID,0.100563,VALID,24.3441,VALID,237,VALID,0,
2011-07-16, 02:20:04,VALID,1002.35,VALID,0,INVALID,163.762,VALID,0.100563,VALID,24.3441,VALID,237,VALID,0,
2011-07-16, 02:21:04,VALID,1002.3,VALID,0,INVALID,163.762,VALID,0.100563,VALID,24.3636,VALID,237,VALID,0,
2011-07-16, 02:22:04,VALID,1002.3,VALID,0,INVALID,163.701,VALID,0.100563,VALID,24.3441,VALID,237,VALID,0,
2011-07-16, 02:23:04,VALID,1002.27,VALID,0,INVALID,163.731,VALID,0,VALID,24.3441,VALID,237,VALID,0,
2011-07-16, 02:24:04,VALID,1002.25,VALID,0,INVALID,163.777,VALID,0,VALID,24.3441,VALID,237,VALID,0,
2011-07-16, 02:25:04,VALID,1002.2,VALID,0,INVALID,163.716,VALID,0,VALID,24.3246,VALID,237,VALID,0,
2011-07-16, 02:26:04,VALID,1002.13,VALID,0,INVALID,163.762,VALID,0,VALID,24.3246,VALID,237,VALID,0,
2011-07-16, 02:27:04,VALID,1002.12,VALID,0,INVALID,163.731,VALID,0.100563,VALID,24.3033,VALID,237,VALID,0,
2011-07-16, 02:28:04,VALID,1002.06,VALID,0,INVALID,163.746,VALID,0,VALID,24.2839,VALID,237,VALID,0,
2011-07-16, 02:29:04,VALID,1002.06,VALID,0,INVALID,163.739,VALID,0,VALID,24.3052,VALID,237,VALID,0,
2011-07-16, 02:30:04,VALID,1002.07,VALID,0,INVALID,163.716,VALID,0,VALID,24.3052,VALID,237,VALID,0,
2011-07-16, 02:31:04,VALID,1002.06,VALID,0,INVALID,163.723,VALID,0,VALID,24.3052,VALID,237,VALID,0,
2011-07-16, 02:32:04,VALID,1002.09,VALID,0,INVALID,163.739,VALID,0,VALID,24.3052,VALID,237,VALID,0,
2011-07-16, 02:33:04,VALID,1002.12,VALID,0,INVALID,163.739,VALID,0,VALID,24.2644,VALID,237,VALID,0,
2011-07-16, 02:34:04,VALID,1002.2,VALID,0,INVALID,163.716,VALID,0,VALID,24.3052,VALID,237,VALID,0,
2011-07-16, 02:35:04,VALID,1002.19,VALID,0,INVALID,163.716,VALID,0.100563,VALID,24.2839,VALID,235,VALID,0,
2011-07-16, 02:36:04,VALID,1002.23,VALID,0,INVALID,163.739,VALID,0,VALID,24.3052,VALID,234,VALID,0,
2011-07-16, 02:37:04,VALID,1002.22,VALID,0,INVALID,163.754,VALID,0.100563,VALID,24.3052,VALID,234,VALID,0,
2011-07-16, 02:38:04,VALID,1002.21,VALID,0.5,INVALID,163.731,VALID,0,VALID,24.3052,VALID,217,VALID,0,
2011-07-16, 02:39:04,VALID,1002.2,VALID,0,INVALID,163.746,VALID,0,VALID,24.3441,VALID,178,VALID,0,
2011-07-16, 02:40:04,VALID,1002.23,VALID,0,INVALID,163.708,VALID,0,VALID,24.3617,VALID,178,VALID,0,
2011-07-16, 02:41:04,VALID,1002.2,VALID,0,INVALID,163.716,VALID,0,VALID,24.383,VALID,176,VALID,0,
2011-07-16, 02:42:04,VALID,1002.22,VALID,0,INVALID,163.769,VALID,0,VALID,24.3812,VALID,175,VALID,0,
2011-07-16, 02:43:04,VALID,1002.21,VALID,0,INVALID,163.769,VALID,0,VALID,24.4006,VALID,175,VALID,0,
2011-07-16, 02:44:04,VALID,1002.24,VALID,0,INVALID,163.723,VALID,0.100563,VALID,24.422,VALID,158,VALID,0,
2011-07-16, 02:45:04,VALID,1002.22,VALID,0,INVALID,163.701,VALID,0,VALID,24.422,VALID,158,VALID,0,
2011-07-16, 02:46:04,VALID,1002.18,VALID,0,INVALID,163.762,VALID,0,VALID,24.422,VALID,155,VALID,0,
2011-07-16, 02:47:04,VALID,1002.18,VALID,0,INVALID,163.701,VALID,0,VALID,24.4414,VALID,153,VALID,0,
2011-07-16, 02:48:04,VALID,1002.15,VALID,0,INVALID,163.716,VALID,0,VALID,24.4609,VALID,153,VALID,0,
2011-07-16, 02:49:04,VALID,1002.13,VALID,0,INVALID,163.701,VALID,0,VALID,24.4822,VALID,153,VALID,0,
2011-07-16, 02:50:04,VALID,1002.1,VALID,0,INVALID,163.716,VALID,0,VALID,24.4609,VALID,153,VALID,0,
2011-07-16, 02:51:04,VALID,1002.06,VALID,0,INVALID,163.678,VALID,0,VALID,24.4804,VALID,153,VALID,0,
2011-07-16, 02:52:04,VALID,1002.05,VALID,0,INVALID,163.731,VALID,0,VALID,24.459,VALID,152,VALID,0,
2011-07-16, 02:53:04,VALID,1002.05,VALID,0,INVALID,163.701,VALID,0,VALID,24.4609,VALID,152,VALID,0,
2011-07-16, 02:54:04,VALID,1002.04,VALID,0,INVALID,163.701,VALID,0,VALID,24.4414,VALID,152,VALID,0,
2011-07-16, 02:55:04,VALID,1002.04,VALID,0,INVALID,163.739,VALID,0,VALID,24.422,VALID,152,VALID,0,
2011-07-16, 02:56:04,VALID,1002.02,VALID,0,INVALID,163.708,VALID,0,VALID,24.4025,VALID,152,VALID,0,
2011-07-16, 02:57:04,VALID,1002.02,VALID,0,INVALID,163.701,VALID,0,VALID,24.4238,VALID,152,VALID,0,
2011-07-16, 02:58:04,VALID,1001.99,VALID,0,INVALID,163.731,VALID,0,VALID,24.4025,VALID,152,VALID,0,
2011-07-16, 02:59:04,VALID,1002.02,VALID,0,INVALID,163.731,VALID,0,VALID,24.383,VALID,152,VALID,0,
2011-07-16, 03:00:04,VALID,1001.96,VALID,0,INVALID,163.708,VALID,0,VALID,24.383,VALID,152,VALID,0,
2011-07-16, 03:01:04,VALID,1001.95,VALID,0,INVALID,163.739,VALID,0,VALID,24.383,VALID,152,VALID,0,
2011-07-16, 03:02:04,VALID,1001.92,VALID,0,INVALID,163.678,VALID,0,VALID,24.383,VALID,152,VALID,0,
2011-07-16, 03:03:04,VALID,1001.9,VALID,0,INVALID,163.716,VALID,0,VALID,24.4025,VALID,152,VALID,0,
2011-07-16, 03:04:04,VALID,1001.91,VALID,0,INVALID,163.693,VALID,0,VALID,24.4238,VALID,152,VALID,0,
2011-07-16, 03:05:04,VALID,1001.86,VALID,0,INVALID,163.723,VALID,0,VALID,24.4025,VALID,152,VALID,0,
2011-07-16, 03:06:04,VALID,1001.84,VALID,0,INVALID,163.739,VALID,0,VALID,24.3812,VALID,152,VALID,0,
2011-07-16, 03:07:04,VALID,1001.8,VALID,0,INVALID,163.693,VALID,0,VALID,24.422,VALID,152,VALID,0,
2011-07-16, 03:08:04,VALID,1001.77,VALID,0,INVALID,163.716,VALID,0,VALID,24.4433,VALID,152,VALID,0,
2011-07-16, 03:09:04,VALID,1001.79,VALID,0,INVALID,163.731,VALID,0,VALID,24.4609,VALID,152,VALID,0,
2011-07-16, 03:10:04,VALID,1001.8,VALID,0,INVALID,163.693,VALID,0.100563,VALID,24.4609,VALID,152,VALID,0,
2011-07-16, 03:11:04,VALID,1001.78,VALID,0,INVALID,163.693,VALID,0,VALID,24.4628,VALID,152,VALID,0,
2011-07-16, 03:12:04,VALID,1001.77,VALID,0,INVALID,163.739,VALID,0,VALID,24.4609,VALID,152,VALID,0,
2011-07-16, 03:13:04,VALID,1001.78,VALID,0,INVALID,163.716,VALID,0,VALID,24.4414,VALID,152,VALID,0,
2011-07-16, 03:14:04,VALID,1001.75,VALID,0,INVALID,163.701,VALID,0,VALID,24.4433,VALID,152,VALID,0,
2011-07-16, 03:15:04,VALID,1001.79,VALID,0,INVALID,163.723,VALID,0,VALID,24.4201,VALID,152,VALID,0,
2011-07-16, 03:16:04,VALID,1001.79,VALID,0,INVALID,163.739,VALID,0,VALID,24.422,VALID,152,VALID,0,
2011-07-16, 03:17:04,VALID,1001.78,VALID,0,INVALID,163.685,VALID,0,VALID,24.4414,VALID,152,VALID,0,
2011-07-16, 03:18:04,VALID,1001.78,VALID,0,INVALID,163.716,VALID,0,VALID,24.4396,VALID,152,VALID,0,
2011-07-16, 03:19:04,VALID,1001.79,VALID,0,INVALID,163.685,VALID,0,VALID,24.4609,VALID,152,VALID,0,
2011-07-16, 03:20:04,VALID,1001.79,VALID,0,INVALID,163.708,VALID,0,VALID,24.4414,VALID,150,VALID,0,
2011-07-16, 03:21:04,VALID,1001.82,VALID,0,INVALID,163.739,VALID,0,VALID,24.4433,VALID,119,VALID,0,
2011-07-16, 03:22:04,VALID,1001.82,VALID,0,INVALID,163.716,VALID,0,VALID,24.4414,VALID,119,VALID,0,
2011-07-16, 03:23:04,VALID,1001.84,VALID,0,INVALID,163.723,VALID,0,VALID,24.4414,VALID,119,VALID,0,
2011-07-16, 03:24:04,VALID,1001.84,VALID,0,INVALID,163.723,VALID,0,VALID,24.4628,VALID,119,VALID,0,
2011-07-16, 03:25:04,VALID,1001.82,VALID,0,INVALID,163.731,VALID,0,VALID,24.4433,VALID,119,VALID,0,
2011-07-16, 03:26:04,VALID,1001.87,VALID,0,INVALID,163.716,VALID,0,VALID,24.4433,VALID,119,VALID,0,
2011-07-16, 03:27:04,VALID,1001.88,VALID,0,INVALID,163.716,VALID,0,VALID,24.422,VALID,119,VALID,0,
2011-07-16, 03:28:04,VALID,1001.9,VALID,0,INVALID,163.701,VALID,0,VALID,24.4414,VALID,119,VALID,0,
2011-07-16, 03:29:04,VALID,1001.96,VALID,0,INVALID,163.731,VALID,0,VALID,24.4414,VALID,119,VALID,0,
2011-07-16, 03:30:04,VALID,1001.99,VALID,0,INVALID,163.716,VALID,0,VALID,24.4609,VALID,119,VALID,0,
2011-07-16, 03:31:04,VALID,1002.03,VALID,0,INVALID,163.701,VALID,0,VALID,24.4822,VALID,119,VALID,0,
2011-07-16, 03:32:04,VALID,1002.05,VALID,0,INVALID,163.723,VALID,0,VALID,24.4804,VALID,115,VALID,0,
2011-07-16, 03:33:04,VALID,1002.08,VALID,0,INVALID,163.701,VALID,0,VALID,24.4804,VALID,101,VALID,0,
2011-07-16, 03:34:04,VALID,1002.08,VALID,0,INVALID,163.701,VALID,0,VALID,24.4785,VALID,101,VALID,0,
2011-07-16, 03:35:04,VALID,1002.09,VALID,0,INVALID,163.708,VALID,0,VALID,24.4804,VALID,101,VALID,0,
2011-07-16, 03:36:04,VALID,1002.1,VALID,0,INVALID,163.716,VALID,0,VALID,24.4609,VALID,101,VALID,0,
2011-07-16, 03:37:04,VALID,1002.11,VALID,0,INVALID,163.723,VALID,0.100563,VALID,24.4609,VALID,101,VALID,0,
2011-07-16, 03:38:04,VALID,1002.13,VALID,0,INVALID,163.716,VALID,0,VALID,24.4609,VALID,101,VALID,0,
2011-07-16, 03:39:04,VALID,1002.11,VALID,0,INVALID,163.723,VALID,0,VALID,24.4822,VALID,101,VALID,0,
2011-07-16, 03:40:04,VALID,1002.14,VALID,0,INVALID,163.716,VALID,0,VALID,24.4609,VALID,101,VALID,0,
2011-07-16, 03:41:04,VALID,1002.15,VALID,0,INVALID,163.708,VALID,0,VALID,24.4414,VALID,101,VALID,0,
2011-07-16, 03:42:04,VALID,1002.15,VALID,0,INVALID,163.723,VALID,0,VALID,24.4609,VALID,101,VALID,0,
2011-07-16, 03:43:04,VALID,1002.17,VALID,0,INVALID,163.716,VALID,0,VALID,24.4804,VALID,101,VALID,0,
2011-07-16, 03:44:04,VALID,1002.19,VALID,0,INVALID,163.701,VALID,0,VALID,24.4609,VALID,101,VALID,0,
2011-07-16, 03:45:04,VALID,1002.19,VALID,0,INVALID,163.693,VALID,0,VALID,24.4414,VALID,101,VALID,0,
2011-07-16, 03:46:04,VALID,1002.22,VALID,0,INVALID,163.723,VALID,0,VALID,24.4414,VALID,101,VALID,0,
2011-07-16, 03:47:04,VALID,1002.21,VALID,0,INVALID,163.708,VALID,0,VALID,24.422,VALID,101,VALID,0,
2011-07-16, 03:48:04,VALID,1002.25,VALID,0,INVALID,163.693,VALID,0,VALID,24.422,VALID,101,VALID,0,
2011-07-16, 03:49:04,VALID,1002.28,VALID,0,INVALID,163.716,VALID,0.100563,VALID,24.4025,VALID,101,VALID,0,
2011-07-16, 03:50:04,VALID,1002.32,VALID,0,INVALID,163.708,VALID,0,VALID,24.383,VALID,101,VALID,0,
2011-07-16, 03:51:04,VALID,1002.39,VALID,0,INVALID,163.708,VALID,0,VALID,24.422,VALID,101,VALID,0,
2011-07-16, 03:52:04,VALID,1002.38,VALID,0,INVALID,163.708,VALID,0,VALID,24.3812,VALID,101,VALID,0,